STARLINK-34815, 65099

Orbit data source: Space-Track

STARLINK-34815, 65099 is a payload satellite owned by SpaceX/Seattle (US) in LEO that was launched on Mon, 04 Aug 2025 UTC via an FALCON 9 launch vehicle from the Air Force Eastern Test Range (AFETR). Payload-class satellites include a variety of spacecraft equipped with specific instruments for various scientific and technological missions. These include communications satellites like Starlink; space stations such as the ISS; scientific satellites like the Hubble; Earth observation satellites from companies like Planet Labs, Umbra, and HawkEye 360; GPS; miniature CubeSats for education and research; and military/defense satellites.

Not visible in the next 10 days
Identifier
65099, 2025-167X
Orbit
LEO
Country
Flag of USUS
Related business
Manufacturer
SpaceX/Seattle
Mission
Operational spacecraft
Bus & Motor
STARLINK V2MO, Unknown motor
Mass
575 kg wet, ~530 kg dry
Launch date (UTC)
2025-08-04 (1 month ago)
Launch vehicle
FALCON 9
Launch site
Air Force Eastern Test Range (AFETR)
Object type
Payload
Rocket body
Debris
Shape & HBR
Unknown
Radar Cross Section
Large (>1 m²)

Expand to show TLE details & history
Last TLE update: 10 hours ago

TLE from 10 hours ago
0 STARLINK-34815
1 65099U 25167X   25243.17616361  .00210130  00000-0  13995-2 0  9993
2 65099  53.1580 194.9932 0002446  50.8425 309.2812 15.74255796  4268
Epoch: 2025-08-31T04:13Z
TLE epoch observation values (Epoch: 2025-08-31T04:13:40.535Z)
Latitude
-0.00004°
Longitude
151.97441°
Altitude
346.625 km
Speed
7.703 km/s
True Right ascension
12h 59m 58s
True Declination
0° 00' 00"
Sunlit
Object was in daylight at epoch
Visualization orbit readout
Latitude
Unknown
Longitude
Unknown
Altitude
Unknown
Speed
Unknown
Apparent Right ascension
Unknown
Apparent Declination
Unknown
Sunlit
N/A
Visualization observer readout
Local Sidereal Time
06:17:02
Azimuth
Unknown
Elevation
Unknown
Doppler factor
Unknown
Orbital elements
Apogee altitude
348.656 km
Perigee altitude
345.366 km
Semi-major axis
6,725.148 km
Eccentricity
0.00024
Inclination
53.158°
RAAN
194.9932°
Arg. of periapsis
50.8425°
True anomaly
309.2595°
Mean anomaly
309.2812°
Eccentric anomaly
309.27035°
Mean motion
3.93541 °/min
Orbital period
91.48 mins
BSTAR
0.0013995
Loading maneuver chart data...
Computing Atmospheric mass density...
Loading historical data...
Loading historical data...
Loading historical data...
Loading historical data...
Loading historical data...
Loading historical data...
Loading historical data...

Documentation

Showing up to 5 results
|